FENGYUN 1C DEB, 31199

Orbit data source: Space-Track

FENGYUN 1C DEB, 31199 is space debris in SSO originally from a launch on Mon, 10 May 1999 UTC launched from the Taiyaun Space Center, China (TSC). Fengyun 1C debris stems from the Chinese weather satellite Fengyun-1C, which was intentionally destroyed by a Chinese anti-satellite missile in 2007. This event dramatically increased the amount of space debris, with thousands of trackable fragments posing hazards to satellites and human spaceflight. The Fengyun 1C debris cloud has become a focal point in discussions about space sustainability and the need for international regulations to prevent the creation of new debris.

Loading next visibility...
Identifier
31199, 1999-025BKD
Orbit
SSO
Country
Flag of CNCN / PRC
Related business
Manufacturer
Unknown
Mission
Spacecraft
Bus & Motor
Unknown
Mass
Unknown
Launch date (UTC)
1999-05-10 (27 years ago)
Launch vehicle
Unknown
Launch site
Taiyaun Space Center, China (TSC)
Object type
Payload
Rocket body
Debris
Shape & HBR
Unknown shape, 0.1 m
Radar Cross Section
Small (<0.1 m²)

Expand to show TLE details & history
Last TLE update: 2 days ago

TLE from 2 days ago
0 FENGYUN 1C DEB
1 31199U 99025BKD 26206.92363549  .00000200  00000-0  13498-3 0  9995
2 31199  98.7350 188.0121 0063826 343.2613  44.0789 14.10137881993338
Epoch: 2026-07-25T22:10Z
TLE epoch observation values (Epoch: 2026-07-25T22:10:02.106Z)
Latitude
27.54266°
Longitude
-92.6972°
Altitude
829.213 km
Speed
7.458 km/s
True Right ascension
12h 13m 45s
True Declination
27° 24' 12"
Sunlit
Object was in daylight at epoch
Visualization orbit readout
Latitude
Unknown
Longitude
Unknown
Altitude
Unknown
Speed
Unknown
Apparent Right ascension
Unknown
Apparent Declination
Unknown
Sunlit
N/A
Visualization observer readout
Local Sidereal Time
11:57:27
Azimuth
Unknown
Elevation
Unknown
Doppler factor
Unknown
Orbital elements
Apogee altitude
902.246 km
Perigee altitude
809.9 km
Semi-major axis
7,234.21 km
Eccentricity
0.00638
Inclination
98.735°
RAAN
188.0121°
Arg. of periapsis
343.2613°
True anomaly
44.59062°
Mean anomaly
44.0789°
Eccentric anomaly
44.33447°
Mean motion
3.52741 °/min
Orbital period
102.06 mins
BSTAR
0.00013498
Loading maneuver chart data...
Computing Atmospheric mass density...
Loading historical data...
Loading historical data...
Loading historical data...
Loading historical data...
Loading historical data...
Loading historical data...
Loading historical data...

Documentation

Showing up to 5 results
|